Regional Weather Roundup
Issued by NWS State College, PA

Home | Current Version | Previous Version | Text Only | Print | Product List | Glossary On
Versions: 1 2 3 4 5 6 7 8 9 10 11 12 13 14 15 16 17 18 19 20 21 22 23 24 25 26 27 28 29 30 31 32 33 34 35 36 37 38 39 40 41 42 43 44 45 46 47 48 49 50
000
ASUS41 KCTP 300203
RWRCTP

REGIONAL WEATHER ROUNDUP
NATIONAL WEATHER SERVICE STATE COLLEGE PA
1000 PM EDT SAT APR 29 2017

Note: "fair" indicates few or no clouds below 12,000 feet with no
significant weather and/or obstructions to visibility.

* = STATION THAT DOES NOT REPORT PRECIPITATION /E.G. RAIN...SNOW...ETC/
    THUNDER OR FOG.

PAZ002>004-007>009-013>016-020>023-029>032-300300-
WESTERN PENNSYLVANIA

CITY           SKY/WX    TMP DP  RH WIND       PRES   REMARKS
ERIE           CLOUDY    50  41  71 NE6       30.22R
MEADVILLE      CLOUDY    51  49  92 NE8       30.19S
FRANKLIN*      CLOUDY    54  48  82 NE7       30.19S
NEW CASTLE     CLOUDY    54  52  93 N5        30.17S
BEAVER COUNTY  NOT AVBL
BUTLER*        CLOUDY    57  55  94 NE9       30.17R
PITTSBURGH INT CLOUDY    60  59  96 N9        30.13S
PITTSBURGH     CLEAR     63  58  83 N8        30.12R
INDIANA*       CLOUDY    63  61  94 CALM      30.17S
LATROBE        CLEAR     66  64  94 CALM      30.13R
WASHINGTON CO* CLEAR     63  57  82 NE9       30.14R
$$

PAZ004>006-010>012-017>019-024>028-033>037-041-042-045-046-049>053-300300-
CENTRAL PENNSYLVANIA

CITY           SKY/WX    TMP DP  RH WIND       PRES   REMARKS
BRADFORD       CLOUDY    51  51 100 N3        30.20R
DUBOIS         MOCLDY    55  52  89 N8        30.17R
CLEARFIELD     CLOUDY    61  58  90 N9        30.16S
JOHNSTOWN      CLEAR     63  60  90 NE6       30.16R
ALTOONA        CLEAR     68  61  78 E5        30.13S
STATE COLLEGE  NOT AVBL
WILLIAMSPORT   PTCLDY    64  55  72 N7        30.14R
SELINSGROVE    MOCLDY    67  59  75 NE7       30.13R
FT INDIANTOWN  CLEAR     74  60  63 NE3       30.09R
CAPITAL CITY   CLEAR     70  62  76 CALM      30.09R
HARRISBURG     MOCLDY    68  64  87 CALM      30.08R
YORK           NOT AVBL
$$

PAZ038>040-043-044-047-048-054-055-060>062-067>071-300300-
EASTERN PENNSYLVANIA

CITY           SKY/WX    TMP DP  RH WIND       PRES   REMARKS
SCRANTON       CLOUDY    62  54  74 N8        30.16R
MOUNT POCONO   CLEAR     57  53  86 NW8       30.15S
ALLENTOWN      CLEAR     70  58  65 N12       30.11R
QUAKERTOWN*    PTCLDY    72  61  68 N6        30.11R
READING        CLEAR     71  61  70 N3        30.09R
LANCASTER      CLEAR     70  64  81 CALM      30.09R
COATESVILLE    CLEAR     70  64  83 N3        30.11R
POTTSTOWN      PTCLDY    70  61  73 N3        30.11R
BLUE BELL      PTCLDY    64  63  94 CALM      30.10R
DOYLESTOWN     PTCLDY    72  62  71 N8        30.09R
WILLOW GROVE   NOT AVBL
NORTH PHILA    CLEAR     74  61  63 W5        30.08R
PHILADELPHIA   CLOUDY    74  62  66 S5        30.08R
$$




USA.gov is the U.S. government's official web portal to all federal, state and local government web resources and services.